"Pseudo-MPEC" for P10MgGU

Created 2019 Feb 13 5:18:57 UT using Find_Orb

Click here for an explanation of pseudo-MPECs

 
 Astrometry: 
     P10MgGU  C2018 12 23yw$F93-_n5+3,]@TG%:J]?vCAstrometrya\;T58X;9K(1Q5pIIVF51
     P10MgGU  C2018 12 2362mU.7qjRK%E^t8/#8@.NjWQGE7xAyTX1Gg?^8/kdhjHc(1f@,NHF51
     P10MgGU  C2018 12 23uLDO^VQOi9Z\'$^j,p0'^ORD)PONKUrUn(,tXOlKdORhgCu]-V9lF51
     P10MgGU  C2018 12 23pGNiVBKp]lc.VlaDY^sqkO075V'WRNTOq0qBMhZ?+huw)sVgm'3vF51
     P10MgGU  C2019 01 10!,qU[h?Sdlux1A`WJZgl'oYWa)C/5fdB7?WY_dw+_v=?=WPAk3L3F51
     P10MgGU  C2019 01 10?GH;^As=]nfwj]pa:G),ep2R=pGwc@D16\S/S3FHywl\HTQo]74-F51
     P10MgGU  C2019 01 10=clu\x(k,;kToCF+k\:7s(Ewredacted;HI=HO41u*`W]hi*GCSjF51
     P10MgGU  C2019 01 105nW4kY8b'gQmb[Ssvu-B*3gNqLl,;;=*,QBI2c%%[3xT/s;ioF6NF51
     P10MgGU  C2019 01 15[SAmuj^D_=Zr;4'hOp8OLN#A1t@[U74P^dud?$@yv[gXJ=(FUj$/F51
     P10MgGU  C2019 01 15C+h\IcK]$k6UM$3QuomAJ7E3#[0+T-jwi9:jeQnVhI]l6hg,5.0MF51
     P10MgGU  C2019 01 16tIHekX:[Cl*T4-kxZG^IUHvcF',au[dwFdiXX$$b08J!rH[?,+OTF51
     P10MgGU  C2019 01 168ZZiZD28V7n[S$M#FKa?WFnf\aAR:7Dtq4.oFFK7;`k?hnEh@aaQF51
     P10MgGU  C2019 01 16Pe)t9bGI/GObik\W`[yZvae8q]5BOe-Y:FYm)enXfWG1mYK(X+%sF51
     P10MgGU  C2019 01 17)r?f?vBfY.[kNll9_%eg^JF1AcOpclickh3hbO.'%Pn88))fuPZ4F51
     P10MgGU  C2019 01 17%ke[@5I-W17em;/TD8u?BUSxT.k#0JnP+ieUvC@3b3*$N93r+.kNF51
     P10MgGU  C2019 01 17tqvCG'2g\bd#PLj4+?M72L]:C[@:hlh:h1;ow(,`F/6syJ$rQBd=F51
     P10MgGU  C2019 01 17_Kj'eX9N6cZP/C@(vD`ou\39*ZKObIhg:pRLc3Tyvh*+eJhboN1DF51
     P10MgGU  C2019 01 20y@2gb]:,F'a#O^/o.QWW%Bjfm`DV9BZHOTdVoZyCnet%BSGxDgl^F51
     P10MgGU  C2019 01 20dlu9F:opX)o5chv.5uRVgjAiAJYxh%t[Kh+uF4j5o-5ou2WdactNF51
     P10MgGU  C2019 01 20M.U!jZiuVic%X.n(]Z_A#vI08f_XpffKg0`0+SIp2[$'ca#r]n,6F51
     P10MgGU  C2019 01 20_I\o/lU%$u2_T9#JUBl`jxPQKIIu.rXXhere[$3`$k57Pi*-m9g5F51
     P10MgGU  C2019 01 27/84X3w*kUeJB%N3;?=^J%R=lAI@!-Rfpj!)#x3I-Ss)XGpsAgXklF51
     P10MgGU  C2019 01 27-1si!NrX+'3^pqfjCThFfP+rbdYZu,IP[A/a'6O?kE6m2[6f]X2$F51
     P10MgGU  C2019 01 27_2;bv^K^e3^-2OTD0D0GwKdo!i+0NqL64t9:9/'x:MJ^7nI^Jd5IF51
     P10MgGU  C2019 01 27BnXq-s0=Tb3ni^-,0?W0)FYnJgD0mRaY#I,4@`PSU@kRL?c\/oK3F51
     P10MgGU  C2019 02 087)S`5AZuq4*kYleLeNbB]Wmp:9Dfi[oBv^=V44DrZXsCyErg/M4gF51
     P10MgGU  C2019 02 08g^w%!-mj,fJd9Palu3.=C\QI#\BiT_jAwASNnw44GRMQ:sM(CpOsF51
     P10MgGU  C2019 02 08T``ua9$/68C7kJB_CIf%Ffor]wu0?-Z]Lil3PgNCE]Z8ZK]^nB[qF51
     P10MgGU  C2019 02 080WjoLZa_d(3-NJA@^m#B;EX2-sO-1B=iB-8oAy.+'vm/4O_[R[vQF51
     P10MgGU  C2019 02 09D4=gWJ%F$h++dxoegD$Hw_y(yaAeSA/h^PycUY/YGn?2mhQZ2U\cF52
     P10MgGU  C2019 02 093*/vLmM%V(^?,45'#I;iXQSLgytfau]Oid.yGm?=yS,q4/@)RRZ+F52
     P10MgGU  C2019 02 099BFQKioYiL.Y%;eP)NJ2'lf'nK3gvM/vX4fMn/jtq#T2C*;qU'R1F52
     P10MgGU  C2019 02 11.21564 10 21 43.56 +33 24 15.7    ~2CHX 21.5 GVNEOCPI52
     P10MgGU  C2019 02 11.23025 10 21 43.34 +33 24 17.2    ~2CHX 21.4 GVNEOCPI52
     P10MgGU  C2019 02 11.24150 10 21 43.14 +33 24 18.8    ~2CHX 21.3 GVNEOCPI52
     P10MgGU  C2019 02 11.25374 10 21 42.92 +33 24 19.7    ~2CHX 20.6 GVNEOCPI52
     P10MgGU  C2019 02 12.22434 10 21 27.02 +33 25 58.0    ~2C6I 19.9 GVNEOCPI52
     P10MgGU  C2019 02 12.23563 10 21 26.84 +33 25 59.0    ~2C6I 20.5 GVNEOCPI52
     P10MgGU  C2019 02 12.24664 10 21 26.70 +33 26 00.1    ~2C6I 20.1 GVNEOCPI52
     P10MgGU KC2019 02 13/t-rpe-6lUE6On](7hw.w$;.R4!MX[\Rh/-9Sq^jU8^7O57WmReEL01
     P10MgGU KC2019 02 13PC-*4F^_^(`m@x+IX@`5g9T3%u`$*I.NB;2V;Jp,0mL.RufL6U:OL01
     P10MgGU KC2019 02 13i6Aq26)iRT_,`oSgW,wXRRexplanationr[ayjF@i1w`C4if@w%LL01

Station data:
(F51) Pan-STARRS 1, Haleakala  (N20.707235 W156.255910)  US/Hawaii.
   Observers N. Primak, A. Schultz, S. Watters, J. Thiel, T. Goggia. Measurer
   PS1 Science Consortium. 1.8-m Ritchey-Chrétien + CCD.
(F52) Pan-STARRS 2, Haleakala  (N20.707384 W156.255910)  US/Hawaii.
(I52) Steward Observatory, Mt. Lemmon Station  (N32.442547 W110.788920)
   US/Arizona.  Observers B. M. Africano, E. J. Christensen, G. A. Farneth,
   D. C. Fuls, A. R. Gibbs, A. D. Grauer, H. Groeller, J. A. Johnson, R. A.
   Kowalski, S. M. Larson, G. J. Leonard, R. L. Seaman, F. C. Shelly. 1.0-m
   reflector + CCD.
(L01) Višnjan Observatory, Tičan  (N45.290900 E13.749300)  Croatia.
   Observers K. Korlević, E. Pettarin. Measurer E. Pettarin. 1.0-m f/2.9
   reflector + CCD.

Orbital elements:  P10MgGU
   Perihelion 2019 May 22.274299 +/- 6.78 TT =  6:34:59 (JD 2458625.774299)
Epoch 2019 Feb 13.0 TT = JDT 2458527.5   Ur: 0.1155           AutoNEOCP
M 359.70462947 +/- 0.020            (J2000 ecliptic)
n   0.00300557 +/- 7.08e-6          Peri.   87.48036 +/- 0.28
a  47.5537290 +/- 0.0745            Node    61.45505 +/- 0.010
e   0.7878372 +/- 0.000341          Incl.   19.61717 +/- 0.0006
P 327.93                   H 11.2   G  0.15   U  5.1  
q 10.0891276 +/- 0.00152    Q 85.0183304 +/- 0.15
From 42 observations 2018 Dec. 23-2019 Feb. 13; mean residual 0".17
Residuals in arcseconds: 
181223 F51  .10+  .01-    190117 F51  .12-  .05+    190208 F51  .02+  .13-    
181223 F51  .09-  .08-    190117 F51  .11+  .03+    190209 F52  .10+  .14-    
181223 F51  .03+  .08-    190117 F51  .09+  .00     190209 F52  .03+  .02+    
181223 F51  .00   .00     190120 F51  .00   .09-    190209 F52  .19+  .22-    
190110 F51  .02-  .01+    190120 F51  .04+  .02-    190211 I52  .38-  .12-    
190110 F51  .05-  .05+    190120 F51  .04+  .12+    190211 I52  .09-  .15-    
190110 F51  .04-  .08+    190120 F51  .05-  .13+    190211 I52  .25-  .28+    
190110 F51  .05-  .08+    190127 F51  .12+  .06-    190211 I52  .45-  .10-    
190115 F51  .11-  .05+    190127 F51  .02+  .01+    190212 I52  .15-  .29-    
190115 F51  .09+  .06+    190127 F51  .02-  .17-    190212 I52  .04-  .44-    
190116 F51  .07-  .05-    190127 F51  .15+  .04+    190212 I52  .52+  .46-    
190116 F51  .09-  .05-    190208 F51  .23+  .05-    190213 L01  .10-  .31+    
190116 F51  .03+  .02+    190208 F51  .23-  .13+    190213 L01  .22+  .59+    
190117 F51  .04-  .02+    190208 F51  .20+  .09-    190213 L01  .11-  .36+    

Ephemerides (geocentric):
Date (UTC) HH   RA              Dec         delta   r     elong  mag " sig PA
---- -- -- --  -------------   -----------  ------ ------ -----  --- ---- ---
2019 02 13 05  10 21 10.737   +33 27 36.03  9.1754 10.100 158.4 21.3 .048  42
2019 02 13 06  10 21 10.047   +33 27 40.12  9.1754 10.100 158.5 21.3 .049  42
2019 02 13 07  10 21 09.357   +33 27 44.19  9.1754 10.100 158.5 21.3 .049  42
2019 02 13 08  10 21 08.666   +33 27 48.27  9.1753 10.100 158.5 21.3 .049  42
2019 02 13 09  10 21 07.975   +33 27 52.34  9.1753 10.100 158.5 21.3 .050  41
2019 02 13 10  10 21 07.285   +33 27 56.40  9.1753 10.100 158.5 21.3 .050  41
2019 02 13 11  10 21 06.594   +33 28 00.47  9.1753 10.100 158.5 21.3 .050  41
2019 02 13 12  10 21 05.902   +33 28 04.52  9.1753 10.100 158.5 21.3 .051  41
2019 02 13 13  10 21 05.211   +33 28 08.58  9.1752 10.100 158.5 21.3 .051  41
2019 02 13 14  10 21 04.520   +33 28 12.63  9.1752 10.100 158.5 21.3 .051  41
2019 02 13 15  10 21 03.828   +33 28 16.67  9.1752 10.100 158.5 21.3 .052  41
2019 02 13 16  10 21 03.136   +33 28 20.71  9.1752 10.100 158.5 21.3 .052  41
2019 02 13 17  10 21 02.444   +33 28 24.75  9.1752 10.100 158.5 21.3 .052  41
2019 02 13 18  10 21 01.752   +33 28 28.78  9.1751 10.100 158.5 21.3 .053  41
2019 02 13 19  10 21 01.060   +33 28 32.81  9.1751 10.100 158.5 21.3 .053  41
2019 02 13 20  10 21 00.368   +33 28 36.83  9.1751 10.100 158.5 21.3 .054  41
2019 02 13 21  10 20 59.675   +33 28 40.85  9.1751 10.100 158.5 21.3 .054  41
2019 02 13 22  10 20 58.982   +33 28 44.86  9.1751 10.100 158.5 21.3 .054  41
2019 02 13 23  10 20 58.290   +33 28 48.87  9.1751 10.100 158.5 21.3 .055  41
2019 02 14 00  10 20 57.597   +33 28 52.88  9.1751 10.100 158.5 21.3 .055  40
2019 02 14 01  10 20 56.903   +33 28 56.88  9.1750 10.100 158.5 21.3 .055  40
2019 02 14 02  10 20 56.210   +33 29 00.88  9.1750 10.100 158.5 21.3 .056  40
2019 02 14 03  10 20 55.517   +33 29 04.87  9.1750 10.100 158.5 21.3 .056  40
2019 02 14 04  10 20 54.823   +33 29 08.86  9.1750 10.100 158.5 21.3 .056  40
2019 02 14 05  10 20 54.129   +33 29 12.85  9.1750 10.100 158.5 21.3 .057  40
2019 02 14 06  10 20 53.436   +33 29 16.83  9.1750 10.100 158.5 21.3 .057  40
2019 02 14 07  10 20 52.742   +33 29 20.81  9.1750 10.100 158.4 21.3 .057  40
2019 02 14 08  10 20 52.048   +33 29 24.78  9.1750 10.100 158.4 21.3 .058  40
2019 02 14 09  10 20 51.353   +33 29 28.75  9.1750 10.100 158.4 21.3 .058  40
2019 02 14 10  10 20 50.659   +33 29 32.71  9.1749 10.100 158.4 21.3 .058  40
2019 02 14 11  10 20 49.964   +33 29 36.67  9.1749 10.100 158.4 21.3 .059  40
2019 02 14 12  10 20 49.270   +33 29 40.62  9.1749 10.100 158.4 21.3 .059  40
2019 02 14 13  10 20 48.575   +33 29 44.58  9.1749 10.100 158.4 21.3 .060  40
2019 02 14 14  10 20 47.880   +33 29 48.52  9.1749 10.100 158.4 21.3 .060  40
2019 02 14 15  10 20 47.185   +33 29 52.46  9.1749 10.100 158.4 21.3 .060  40
2019 02 14 16  10 20 46.490   +33 29 56.40  9.1749 10.100 158.4 21.3 .061  39
2019 02 14 17  10 20 45.794   +33 30 00.33  9.1749 10.100 158.4 21.3 .061  39
2019 02 14 18  10 20 45.099   +33 30 04.26  9.1749 10.100 158.4 21.3 .061  39
2019 02 14 19  10 20 44.403   +33 30 08.19  9.1749 10.100 158.4 21.3 .062  39
2019 02 14 20  10 20 43.707   +33 30 12.11  9.1749 10.100 158.4 21.3 .062  39
2019 02 14 21  10 20 43.011   +33 30 16.02  9.1749 10.100 158.4 21.3 .062  39
2019 02 14 22  10 20 42.315   +33 30 19.94  9.1749 10.100 158.4 21.3 .063  39
2019 02 14 23  10 20 41.619   +33 30 23.84  9.1749 10.100 158.4 21.3 .063  39
2019 02 15 00  10 20 40.923   +33 30 27.75  9.1749 10.100 158.4 21.3 .063  39
2019 02 15 01  10 20 40.227   +33 30 31.65  9.1749 10.100 158.4 21.3 .064  39
2019 02 15 02  10 20 39.530   +33 30 35.54  9.1749 10.100 158.4 21.3 .064  39
2019 02 15 03  10 20 38.833   +33 30 39.43  9.1749 10.100 158.4 21.3 .065  39
2019 02 15 04  10 20 38.137   +33 30 43.31  9.1749 10.100 158.4 21.3 .065  39